User: anonymous   Login
Location: Niverville
(49.6028°N, 97.0419°W)
Time: 15:40:14
(UTC-05:00)
Language:

BREEZE-M DEB (TANK) - Orbit

View from above orbital plane
View from above orbital plane
View from above satellite
View from above satellite

Ground track
Ground track

The orbit data is extracted from the following two-line orbital elements,

1 33374U 08044B   18145.11675721  .00000126  00000-0  42877-4 0  9996
2 33374  49.4946  43.5927 5436450 289.9916  21.0273  4.87334934170669
Epoch (UTC): 25 May 2018 02:48:07
Eccentricity: 0.5436450
inclination: 49.4946°
perigee height: 328 km
apogee height: 16306 km
right ascension of ascending node: 43.5927°
argument of perigee: 289.9916°
revolutions per day: 4.87334934
mean anomaly at epoch: 21.0273°
orbit number at epoch: 17066

The dashed part of the orbit path shows where the satellite is in the earth's shadow,  

DLR